349P/Lemmon (2017)

Japanese version
Home page
Updated on March 3, 2018

---------------------------------------------------------------------

* Profile

Designation 349P/2017 B1
Recovery Date January 26, 2017
Magnitude 21.0 mag
Recoverer Pan-STARRS 1 telescope (Haleakala)

* Pictures

* Orbital Elements

Epoch 2017 Sept. 4.0 TT = JDT 2458000.5
T 2017 Aug. 26.73508 TT                                 MPCW
q   2.4985254            (2000.0)            P               Q
n   0.14596977     Peri.  255.97849     -0.67011540     +0.74087601
a   3.5724057      Node   331.78276     -0.63871765     -0.60662722
e   0.3006042      Incl.    5.49250     -0.37813373     -0.28828138
P   6.75
From 87 observations 2010 Mar. 14-2017 May 17, mean residual 0".5.

* Magnitudes Graph

        m1 = 9.0 + 5 log d + 20.0 log r

---------------------------------------------------------------------

The orbital elements are published on M.P.E.C. 2017-L52.
The magnitudes graphs are made with Comet for Windows.

---------------------------------------------------------------------

Copyright(C) Seiichi Yoshida (comet@aerith.net). All rights reserved.